Flagstaff, Arizona, United States (86001)
Lat: 35.20N, Lon: 111.65W
Wx Zone: AZZ015
Local Info
Past Weather Observations for Wednesday, September 21, 2016

NOTE: This archive is for the closest National Weather Service station to Flagstaff. Information may differ from the station used for current weather conditions.

Click here for Long-term Archive

Time Weather Temperature Dewpoint Humidity Pressure Winds Precip Visibility
23:57
Clear
48°F / 9°C 48°F / 9°C 100% 30.18 in
(1022 mb)
Calm - 10SM
22:57
Clear
50°F / 10°C 46°F / 8°C 88% 30.18 in
(1022 mb)
Calm - 10SM
21:57
Clear
50°F / 10°C 48°F / 9°C 94% 30.18 in
(1022 mb)
Calm - 10SM
20:57
Clear
52°F / 11°C 48°F / 9°C 88% 30.18 in
(1022 mb)
Calm - 10SM
19:57
Clear
55°F / 13°C 50°F / 10°C 82% 30.18 in
(1022 mb)
Calm - 10SM
18:57
Partly Cloudy
61°F / 16°C 52°F / 11°C 72% 30.18 in
(1022 mb)
W 3.5 mph
(W 6 kph)
- 10SM
17:57
Mostly Cloudy
64°F / 18°C 54°F / 12°C 68% 30.18 in
(1022 mb)
SW 6.9 mph
(SW 11 kph)
- 10SM
16:57
Partly Cloudy
66°F / 19°C 54°F / 12°C 64% 30.18 in
(1022 mb)
SW 13.8 mph
(SW 22 kph)
- 10SM
15:57
Clear
70°F / 21°C 52°F / 11°C 53% 30.18 in
(1022 mb)
SW 13.8 mph
(SW 22 kph)
- 10SM
14:57
Mostly Cloudy
70°F / 21°C 52°F / 11°C 53% 30.21 in
(1023 mb)
SW 18.4 mph
(SW 30 kph)
- 10SM
13:57
Mostly Cloudy
66°F / 19°C 54°F / 12°C 64% 30.21 in
(1023 mb)
SW 13.8 mph
(SW 22 kph)
- 10SM
12:57
Mostly Cloudy
66°F / 19°C 55°F / 13°C 68% 30.24 in
(1024 mb)
SW 13.8 mph
(SW 22 kph)
- 10SM
11:57
Mostly Cloudy
66°F / 19°C 55°F / 13°C 68% 30.24 in
(1024 mb)
SW 16.1 mph
(SW 26 kph)
- 10SM
10:57
Mostly Cloudy
64°F / 18°C 55°F / 13°C 73% 30.27 in
(1025 mb)
SW 11.5 mph
(SW 19 kph)
- 10SM
09:57
Mostly Cloudy
63°F / 17°C 55°F / 13°C 77% 30.27 in
(1025 mb)
SW 6.9 mph
(SW 11 kph)
- 10SM
08:57
Mostly Cloudy
63°F / 17°C 55°F / 13°C 77% 30.27 in
(1025 mb)
SSE 6.9 mph
(SSE 11 kph)
- 10SM
08:52
Mostly Cloudy
63°F / 17°C 55°F / 13°C 77% 30.27 in
(1025 mb)
SSE 6.9 mph
(SSE 11 kph)
- 10SM
08:45
Mostly Cloudy
63°F / 17°C 55°F / 13°C 77% 30.27 in
(1025 mb)
SW 5.8 mph
(SW 9 kph)
- 10SM
07:57
Mostly Cloudy
57°F / 14°C 55°F / 13°C 94% 30.27 in
(1025 mb)
Calm - 10SM
06:57
Mostly Cloudy
52°F / 11°C 52°F / 11°C 100% 30.27 in
(1025 mb)
Calm - 10SM
05:57
Mostly Cloudy
52°F / 11°C 52°F / 11°C 100% 30.27 in
(1025 mb)
Calm - 9SM
04:57
Mostly Cloudy
Fog And Mist
52°F / 11°C 52°F / 11°C 100% 30.27 in
(1025 mb)
Calm - 6SM
03:57
Partly Cloudy
52°F / 11°C 52°F / 11°C 100% 30.27 in
(1025 mb)
Calm - 8SM
02:57
Mostly Cloudy
52°F / 11°C 52°F / 11°C 100% 30.27 in
(1025 mb)
Calm - 10SM
01:57
Overcast
52°F / 11°C 52°F / 11°C 100% 30.3 in
(1026 mb)
Calm 0.00 in
(0.00 mm)
8SM
01:40
Overcast
Fog And Mist
52°F / 11°C 52°F / 11°C 100% 30.3 in
(1026 mb)
Calm 0.00 in
(0.00 mm)
6SM
00:57
Overcast
Fog And Mist
52°F / 11°C 52°F / 11°C 100% 30.3 in
(1026 mb)
Calm - 6SM
Time Weather Temperature Dewpoint Humidity Pressure Winds Precip Visibility


Weather for websites

WeatherForYou.com, LLC is not responsible for any damages or problems caused by this service. Current weather conditions are obtained from the closest station including government and personal stations which may have varying degrees of accuracy. Weather forecasts are derived from the NOAA NDFD. Like all things, this site belongs to Jesus Christ... He just trusts us to maintain it. If you have any questions or comments email webmaster@weatherforyou.com

Copyright © 2016, WeatherForYou.com LLC. All rights reserved.